Simultaneous Nadir Overpasses (SNOs) Predictions

Prediction of SNOs between GOES-17 and AQUA Satellite Orbit:

Table of predicted SNOs for the next 14.0 days since TLE Epoch: 10/30/2021
Index Date Time (GOES-17) GOES-17 Lat,Lon AQUA Lat,Lon Distance(km) Time Diff (sec)
1 10/31/2021 10:39:34 0.02,-137.22 -0.32,-135.68 175.10 80
2 10/31/2021 22:58:18 -0.02,-137.22 -0.81,-140.87 415.48 80
3 11/02/2021 22:46:08 -0.02,-137.21 -0.19,-137.92 80.73 80
4 11/04/2021 22:36:38 -0.02,-137.19 0.44,-134.96 253.39 80
5 11/05/2021 10:55:14 0.02,-137.19 0.66,-140.12 333.76 80
6 11/07/2021 10:45:44 0.02,-137.16 0.01,-137.17 1.35 80
7 11/09/2021 10:33:33 0.01,-137.12 -0.59,-134.21 331.17 80
8 11/09/2021 22:52:17 -0.01,-137.11 -0.53,-139.39 260.38 80
9 11/11/2021 22:42:47 -0.01,-137.07 0.15,-136.45 71.45 80
